,,,PA_Meas_PMT16A,,PR_Meas_QMR101_102,,RH_Meas_QMH101,,SR_Meas_QMS101,,TA_Meas_QMH101,,GenWind,,GenWind,
date,time,status,PA,status,PR,status,RH,status,SR,status,TA,status,DirAvg,status,SpdAvg,
2009-07-07, 00:00:04,VALID,1000.25,VALID,0,VALID,89.2742,VALID,0,VALID,22.9615,VALID,168,VALID,0.645703,
2009-07-07, 00:01:04,VALID,1000.24,VALID,0,VALID,88.7935,VALID,0,VALID,23.0201,VALID,140,VALID,1.00859,
2009-07-07, 00:02:04,VALID,1000.26,VALID,0,VALID,88.2213,VALID,0,VALID,23.0981,VALID,112,VALID,0.851563,
2009-07-07, 00:03:04,VALID,1000.26,VALID,0,VALID,87.794,VALID,0,VALID,23.1549,VALID,116,VALID,0.718359,
2009-07-07, 00:04:04,VALID,1000.29,VALID,0,VALID,87.5423,VALID,0,VALID,23.1939,VALID,138,VALID,0.642969,
2009-07-07, 00:05:04,VALID,1000.27,VALID,0,VALID,87.4049,VALID,0,VALID,23.2134,VALID,143,VALID,0.190625,
2009-07-07, 00:06:04,VALID,1000.31,VALID,0,VALID,87.2752,VALID,0,VALID,23.2329,VALID,143,VALID,0.257422,
2009-07-07, 00:07:04,VALID,1000.27,VALID,0,VALID,87.2981,VALID,0,VALID,23.2542,VALID,143,VALID,0.369922,
2009-07-07, 00:08:04,VALID,1000.28,VALID,0,VALID,87.2218,VALID,0,VALID,23.2542,VALID,143,VALID,0.277344,
2009-07-07, 00:09:04,VALID,1000.27,VALID,0,VALID,87.3134,VALID,0,VALID,23.2542,VALID,143,VALID,0.122656,
2009-07-07, 00:10:04,VALID,1000.31,VALID,0,VALID,87.3592,VALID,0,VALID,23.2542,VALID,143,VALID,0.398047,
2009-07-07, 00:11:04,VALID,1000.29,VALID,0,VALID,87.4431,VALID,0,VALID,23.2152,VALID,136,VALID,0.55,
2009-07-07, 00:12:04,VALID,1000.31,VALID,0,VALID,87.382,VALID,0,VALID,23.2347,VALID,118,VALID,0.450781,
2009-07-07, 00:13:04,VALID,1000.31,VALID,0,VALID,87.3363,VALID,0,VALID,23.2542,VALID,118,VALID,0.490234,
2009-07-07, 00:14:04,VALID,1000.31,VALID,0,VALID,87.0311,VALID,0,VALID,23.2719,VALID,135,VALID,0.964063,
2009-07-07, 00:15:04,VALID,1000.29,VALID,0,VALID,86.8174,VALID,0,VALID,23.311,VALID,119,VALID,0.478906,
2009-07-07, 00:16:04,VALID,1000.3,VALID,0,VALID,86.6649,VALID,0,VALID,23.3323,VALID,151,VALID,0.656641,
2009-07-07, 00:17:04,VALID,1000.28,VALID,0,VALID,86.436,VALID,0,VALID,23.3518,VALID,180,VALID,0.879297,
2009-07-07, 00:18:04,VALID,1000.25,VALID,0,VALID,86.2147,VALID,0,VALID,23.4103,VALID,187,VALID,1.58672,
2009-07-07, 00:19:04,VALID,1000.3,VALID,0,VALID,86.0621,VALID,0,VALID,23.4493,VALID,171,VALID,1.66836,
2009-07-07, 00:20:04,VALID,1000.25,VALID,0,VALID,85.8485,VALID,0,VALID,23.4671,VALID,196,VALID,1.46797,
2009-07-07, 00:21:04,VALID,1000.24,VALID,0,VALID,85.3907,VALID,0,VALID,23.5859,VALID,179,VALID,1.54922,
2009-07-07, 00:22:04,VALID,1000.23,VALID,0,VALID,85.2381,VALID,0,VALID,23.6054,VALID,170,VALID,1.01445,
2009-07-07, 00:23:04,VALID,1000.26,VALID,0,VALID,85.2,VALID,0,VALID,23.5859,VALID,170,VALID,0.922266,
2009-07-07, 00:24:04,VALID,1000.25,VALID,0,VALID,85.1694,VALID,0,VALID,23.5451,VALID,171,VALID,1.09141,
2009-07-07, 00:25:04,VALID,1000.23,VALID,0,VALID,85.1923,VALID,0,VALID,23.5451,VALID,183,VALID,1.31172,
2009-07-07, 00:26:04,VALID,1000.23,VALID,0,VALID,85.1618,VALID,0,VALID,23.5859,VALID,176,VALID,1.08008,
2009-07-07, 00:27:04,VALID,1000.24,VALID,0,VALID,85.0092,VALID,0,VALID,23.5859,VALID,185,VALID,0.969141,
2009-07-07, 00:28:04,VALID,1000.24,VALID,0,VALID,84.8414,VALID,0,VALID,23.6054,VALID,169,VALID,0.921875,
2009-07-07, 00:29:04,VALID,1000.25,VALID,0,VALID,84.7498,VALID,0,VALID,23.6054,VALID,166,VALID,0.971094,
2009-07-07, 00:30:04,VALID,1000.26,VALID,0,VALID,84.6964,VALID,0,VALID,23.6232,VALID,175,VALID,1.05977,
2009-07-07, 00:31:04,VALID,1000.26,VALID,0,VALID,84.788,VALID,0,VALID,23.6445,VALID,170,VALID,0.901172,
2009-07-07, 00:32:04,VALID,1000.22,VALID,0,VALID,84.788,VALID,0,VALID,23.6054,VALID,174,VALID,1.11406,
2009-07-07, 00:33:04,VALID,1000.2,VALID,0,VALID,84.8032,VALID,0,VALID,23.5841,VALID,174,VALID,0.845312,
2009-07-07, 00:34:04,VALID,1000.21,VALID,0,VALID,84.9177,VALID,0,VALID,23.5859,VALID,173,VALID,0.907422,
2009-07-07, 00:35:04,VALID,1000.21,VALID,0,VALID,84.9482,VALID,0,VALID,23.5664,VALID,173,VALID,0.903125,
2009-07-07, 00:36:04,VALID,1000.22,VALID,0,VALID,85.0779,VALID,0,VALID,23.5256,VALID,179,VALID,0.869922,
2009-07-07, 00:37:04,VALID,1000.23,VALID,0,VALID,85.2152,VALID,0,VALID,23.5256,VALID,178,VALID,0.837891,
2009-07-07, 00:38:04,VALID,1000.24,VALID,0,VALID,85.2992,VALID,0,VALID,23.4866,VALID,186,VALID,0.739062,
2009-07-07, 00:39:04,VALID,1000.26,VALID,0,VALID,85.3983,VALID,0,VALID,23.5079,VALID,186,VALID,0.591797,
2009-07-07, 00:40:04,VALID,1000.25,VALID,0,VALID,85.3755,VALID,0,VALID,23.4671,VALID,185,VALID,0.840234,
2009-07-07, 00:41:04,VALID,1000.25,VALID,0,VALID,85.4136,VALID,0,VALID,23.4671,VALID,183,VALID,0.736328,
2009-07-07, 00:42:04,VALID,1000.26,VALID,0,VALID,85.4746,VALID,0,VALID,23.4688,VALID,167,VALID,0.696875,
2009-07-07, 00:43:04,VALID,1000.27,VALID,0,VALID,85.5586,VALID,0,VALID,23.4493,VALID,167,VALID,0.638281,
2009-07-07, 00:44:04,VALID,1000.26,VALID,0,VALID,85.4899,VALID,0,VALID,23.428,VALID,183,VALID,0.756641,
2009-07-07, 00:45:04,VALID,1000.26,VALID,0,VALID,85.4823,VALID,0,VALID,23.4671,VALID,183,VALID,0.607813,
2009-07-07, 00:46:04,VALID,1000.26,VALID,0,VALID,85.4975,VALID,0,VALID,23.4475,VALID,171,VALID,0.667188,
2009-07-07, 00:47:04,VALID,1000.25,VALID,0,VALID,85.5051,VALID,0,VALID,23.4493,VALID,161,VALID,0.479297,
2009-07-07, 00:48:04,VALID,1000.23,VALID,0,VALID,85.5967,VALID,0,VALID,23.428,VALID,175,VALID,0.660547,
2009-07-07, 00:49:04,VALID,1000.23,VALID,0,VALID,85.6425,VALID,0,VALID,23.4085,VALID,161,VALID,0.882031,
2009-07-07, 00:50:04,VALID,1000.22,VALID,0,VALID,85.6196,VALID,0,VALID,23.389,VALID,171,VALID,0.701563,
2009-07-07, 00:51:04,VALID,1000.18,VALID,0,VALID,85.734,VALID,0,VALID,23.389,VALID,171,VALID,0.389453,
2009-07-07, 00:52:04,VALID,1000.16,VALID,0,VALID,85.7874,VALID,0,VALID,23.3695,VALID,171,VALID,0.353516,
2009-07-07, 00:53:04,VALID,1000.14,VALID,0,VALID,85.8103,VALID,0,VALID,23.35,VALID,171,VALID,0.00546875,
2009-07-07, 00:54:04,VALID,1000.15,VALID,0,VALID,85.9934,VALID,0,VALID,23.311,VALID,171,VALID,0.147266,
2009-07-07, 00:55:04,VALID,1000.12,VALID,0,VALID,86.4512,VALID,0,VALID,23.2524,VALID,171,VALID,0.196484,
2009-07-07, 00:56:04,VALID,1000.11,VALID,0,VALID,86.6801,VALID,0,VALID,23.2152,VALID,171,VALID,0.210156,
2009-07-07, 00:57:04,VALID,1000.08,VALID,0,VALID,86.7869,VALID,0,VALID,23.1354,VALID,171,VALID,0.210547,
2009-07-07, 00:58:05,VALID,1000.09,VALID,0,VALID,86.848,VALID,0,VALID,23.1159,VALID,171,VALID,0.119922,
2009-07-07, 00:59:05,VALID,1000.09,VALID,0,VALID,87.0311,VALID,0,VALID,23.0981,VALID,171,VALID,0.324219,
2009-07-07, 01:00:05,VALID,1000.04,VALID,0,VALID,87.1455,VALID,0,VALID,23.0786,VALID,171,VALID,0.301562,
2009-07-07, 01:01:05,VALID,1000.04,VALID,0,VALID,87.0616,VALID,0,VALID,23.0981,VALID,120,VALID,0.776172,
2009-07-07, 01:02:05,VALID,1000.02,VALID,0,VALID,86.9624,VALID,0,VALID,23.1159,VALID,120,VALID,0.778516,
2009-07-07, 01:03:05,VALID,999.967,VALID,0,VALID,86.6496,VALID,0,VALID,23.1762,VALID,120,VALID,0.557031,
2009-07-07, 01:04:05,VALID,999.984,VALID,0,VALID,86.6801,VALID,0,VALID,23.1957,VALID,120,VALID,0.516797,
2009-07-07, 01:05:05,VALID,999.969,VALID,0,VALID,86.703,VALID,0,VALID,23.2152,VALID,120,VALID,0.392969,
2009-07-07, 01:06:05,VALID,999.949,VALID,0,VALID,87.0463,VALID,0,VALID,23.1957,VALID,120,VALID,0.221875,
2009-07-07, 01:07:05,VALID,999.947,VALID,0,VALID,87.0692,VALID,0,VALID,23.1549,VALID,120,VALID,0.275781,
2009-07-07, 01:08:05,VALID,999.936,VALID,0,VALID,87.054,VALID,0,VALID,23.1566,VALID,120,VALID,0.217969,
2009-07-07, 01:09:05,VALID,999.922,VALID,0,VALID,87.0769,VALID,0,VALID,23.0981,VALID,120,VALID,0.119531,
2009-07-07, 01:10:04,VALID,999.908,VALID,0,VALID,87.1837,VALID,0,VALID,23.0591,VALID,120,VALID,0.046875,
2009-07-07, 01:11:05,VALID,999.911,VALID,0,VALID,87.5575,VALID,0,VALID,23.0396,VALID,120,VALID,0,
2009-07-07, 01:12:05,VALID,999.886,VALID,0,VALID,87.7864,VALID,0,VALID,22.9811,VALID,44,VALID,0.590625,
2009-07-07, 01:13:05,VALID,999.882,VALID,0,VALID,88.496,VALID,0,VALID,22.8835,VALID,43,VALID,0.691797,
2009-07-07, 01:14:05,VALID,999.863,VALID,0,VALID,88.8393,VALID,0,VALID,22.8055,VALID,43,VALID,0.547656,
2009-07-07, 01:15:05,VALID,999.838,VALID,0,VALID,89.1216,VALID,0,VALID,22.7469,VALID,43,VALID,0.355859,
2009-07-07, 01:16:05,VALID,999.858,VALID,0,VALID,89.2818,VALID,0,VALID,22.7079,VALID,43,VALID,0.215625,
2009-07-07, 01:17:05,VALID,999.836,VALID,0,VALID,89.4649,VALID,0,VALID,22.6884,VALID,43,VALID,0.123438,
2009-07-07, 01:18:05,VALID,999.803,VALID,0,VALID,89.4191,VALID,0,VALID,22.6689,VALID,43,VALID,0.281641,
2009-07-07, 01:19:05,VALID,999.799,VALID,0,VALID,89.526,VALID,0,VALID,22.5696,VALID,43,VALID,0.750781,
2009-07-07, 01:20:05,VALID,999.774,VALID,0,VALID,90.5102,VALID,0,VALID,22.5128,VALID,43,VALID,0.704297,
2009-07-07, 01:21:05,VALID,999.77,VALID,0,VALID,91.2808,VALID,0,VALID,22.5128,VALID,43,VALID,0.815234,
2009-07-07, 01:22:05,VALID,999.761,VALID,0,VALID,90.9527,VALID,0,VALID,22.5128,VALID,52,VALID,0.894141,
2009-07-07, 01:23:05,VALID,999.765,VALID,0,VALID,91.4028,VALID,0,VALID,22.5145,VALID,52,VALID,0.953125,
2009-07-07, 01:24:05,VALID,999.726,VALID,0,VALID,91.7004,VALID,0,VALID,22.4738,VALID,55,VALID,0.912109,
2009-07-07, 01:25:05,VALID,999.683,VALID,0,VALID,91.792,VALID,0,VALID,22.4543,VALID,62,VALID,0.805078,
2009-07-07, 01:26:05,VALID,999.681,VALID,0,VALID,91.7767,VALID,0,VALID,22.4348,VALID,67,VALID,0.836328,
2009-07-07, 01:27:05,VALID,999.635,VALID,0,VALID,92.0514,VALID,0,VALID,22.3958,VALID,68,VALID,0.875781,
2009-07-07, 01:28:05,VALID,999.653,VALID,0,VALID,92.0514,VALID,0,VALID,22.3958,VALID,68,VALID,0.755859,
2009-07-07, 01:29:05,VALID,999.658,VALID,0,VALID,91.9445,VALID,0,VALID,22.3746,VALID,68,VALID,0.315234,
2009-07-07, 01:30:05,VALID,999.68,VALID,0,VALID,91.8454,VALID,0,VALID,22.3568,VALID,68,VALID,0,
2009-07-07, 01:31:05,VALID,999.702,VALID,0,VALID,91.8759,VALID,0,VALID,22.3373,VALID,68,VALID,0.0734375,
2009-07-07, 01:32:05,VALID,999.753,VALID,0,VALID,92.2116,VALID,0,VALID,22.3373,VALID,68,VALID,0.483984,
2009-07-07, 01:33:05,VALID,999.734,VALID,0,VALID,92.1353,VALID,0,VALID,22.3373,VALID,314,VALID,0.841797,
2009-07-07, 01:34:05,VALID,999.775,VALID,0,VALID,92.1048,VALID,0,VALID,22.2983,VALID,312,VALID,0.791016,
2009-07-07, 01:35:05,VALID,999.776,VALID,0,VALID,92.2803,VALID,0,VALID,22.2983,VALID,312,VALID,0.771094,
2009-07-07, 01:36:05,VALID,999.765,VALID,0,VALID,92.41,VALID,0,VALID,22.3178,VALID,312,VALID,0.557422,
2009-07-07, 01:37:05,VALID,999.757,VALID,0,VALID,92.5244,VALID,0,VALID,22.3178,VALID,312,VALID,0.323438,
2009-07-07, 01:38:05,VALID,999.747,VALID,0,VALID,92.5702,VALID,0,VALID,22.3178,VALID,312,VALID,0,
2009-07-07, 01:39:05,VALID,999.717,VALID,0,VALID,92.6694,VALID,0,VALID,22.3373,VALID,312,VALID,0,
2009-07-07, 01:40:05,VALID,999.713,VALID,0,VALID,92.738,VALID,0,VALID,22.3568,VALID,312,VALID,0,
2009-07-07, 01:41:05,VALID,999.726,VALID,0,VALID,92.822,VALID,0,VALID,22.3551,VALID,312,VALID,0.009375,
2009-07-07, 01:42:05,VALID,999.705,VALID,0,VALID,92.8677,VALID,0,VALID,22.3958,VALID,312,VALID,0.190625,
2009-07-07, 01:43:05,VALID,999.725,VALID,0,VALID,92.8525,VALID,0,VALID,22.3958,VALID,312,VALID,0.135547,
2009-07-07, 01:44:05,VALID,999.684,VALID,0,VALID,92.7609,VALID,0,VALID,22.3746,VALID,312,VALID,0.0515625,
2009-07-07, 01:45:05,VALID,999.658,VALID,0,VALID,92.6617,VALID,0,VALID,22.3958,VALID,312,VALID,0.216406,
2009-07-07, 01:46:05,VALID,999.678,VALID,0,VALID,92.6541,VALID,0,VALID,22.3958,VALID,312,VALID,0.339844,
2009-07-07, 01:47:05,VALID,999.699,VALID,0,VALID,92.5397,VALID,0,VALID,22.3746,VALID,312,VALID,0.05,
2009-07-07, 01:48:05,VALID,999.674,VALID,0,VALID,92.4023,VALID,0,VALID,22.3373,VALID,312,VALID,0.122266,
2009-07-07, 01:49:05,VALID,999.643,VALID,0,VALID,92.5778,VALID,0,VALID,22.3373,VALID,312,VALID,0.326953,
2009-07-07, 01:50:05,VALID,999.694,VALID,0,VALID,92.7762,VALID,0,VALID,22.3178,VALID,312,VALID,0.464844,
2009-07-07, 01:51:05,VALID,999.699,VALID,0,VALID,92.6388,VALID,0,VALID,22.2983,VALID,312,VALID,0.449219,
2009-07-07, 01:52:05,VALID,999.698,VALID,0,VALID,92.3108,VALID,0,VALID,22.2397,VALID,324,VALID,0.553125,
2009-07-07, 01:53:05,VALID,999.707,VALID,0,VALID,92.265,VALID,0,VALID,22.1812,VALID,325,VALID,0.607813,
2009-07-07, 01:54:05,VALID,999.708,VALID,0,VALID,92.4328,VALID,0,VALID,22.1227,VALID,331,VALID,0.620313,
2009-07-07, 01:55:05,VALID,999.701,VALID,0,VALID,92.4176,VALID,0,VALID,22.0642,VALID,332,VALID,0.609375,
2009-07-07, 01:56:05,VALID,999.673,VALID,0,VALID,92.7457,VALID,0,VALID,22.0252,VALID,334,VALID,0.473047,
2009-07-07, 01:57:05,VALID,999.644,VALID,0,VALID,93.2874,VALID,0,VALID,22.0235,VALID,334,VALID,0.371875,
2009-07-07, 01:58:05,VALID,999.647,VALID,0,VALID,93.3942,VALID,0,VALID,22.043,VALID,334,VALID,0.398828,
2009-07-07, 01:59:05,VALID,999.613,VALID,0,VALID,93.3789,VALID,0,VALID,22.0235,VALID,334,VALID,0.483594,
2009-07-07, 02:00:05,VALID,999.62,VALID,0,VALID,93.3789,VALID,0,VALID,22.0642,VALID,334,VALID,0.607422,
2009-07-07, 02:01:05,VALID,999.61,VALID,0,VALID,93.4094,VALID,0,VALID,22.0235,VALID,334,VALID,0.650391,
2009-07-07, 02:02:05,VALID,999.595,VALID,0,VALID,93.3637,VALID,0,VALID,22.082,VALID,43,VALID,0.754297,
2009-07-07, 02:03:05,VALID,999.563,VALID,0,VALID,93.3026,VALID,0,VALID,22.1227,VALID,43,VALID,0.496094,
2009-07-07, 02:04:05,VALID,999.561,VALID,0,VALID,92.9669,VALID,0,VALID,22.121,VALID,44,VALID,0.166797,
2009-07-07, 02:05:05,VALID,999.545,VALID,0,VALID,92.7762,VALID,0,VALID,22.1227,VALID,44,VALID,0.028125,
2009-07-07, 02:06:05,VALID,999.55,VALID,0,VALID,92.6846,VALID,0,VALID,22.1422,VALID,44,VALID,0.491016,
2009-07-07, 02:07:05,VALID,999.526,VALID,0,VALID,92.7151,VALID,0,VALID,22.1422,VALID,44,VALID,0.592578,
2009-07-07, 02:08:05,VALID,999.491,VALID,0,VALID,92.8906,VALID,0,VALID,22.16,VALID,27,VALID,0.776953,
2009-07-07, 02:09:05,VALID,999.479,VALID,0,VALID,92.4863,VALID,0,VALID,22.1617,VALID,10,VALID,0.711719,
2009-07-07, 02:10:05,VALID,999.507,VALID,0,VALID,92.1734,VALID,0,VALID,22.1227,VALID,7,VALID,0.603906,
2009-07-07, 02:11:05,VALID,999.514,VALID,0,VALID,92.3337,VALID,0,VALID,22.1032,VALID,7,VALID,0.473437,
2009-07-07, 02:12:05,VALID,999.485,VALID,0,VALID,92.1582,VALID,0,VALID,22.0642,VALID,7,VALID,0.258984,
2009-07-07, 02:13:05,VALID,999.49,VALID,0,VALID,92.2803,VALID,0,VALID,22.0447,VALID,7,VALID,0.0507813,
2009-07-07, 02:14:05,VALID,999.498,VALID,0,VALID,92.326,VALID,0,VALID,22.0057,VALID,7,VALID,0,
2009-07-07, 02:15:05,VALID,999.484,VALID,0,VALID,92.3947,VALID,0,VALID,21.965,VALID,7,VALID,0.009375,
2009-07-07, 02:16:05,VALID,999.5,VALID,0,VALID,92.3947,VALID,0,VALID,21.9472,VALID,7,VALID,0.425391,
2009-07-07, 02:17:05,VALID,999.433,VALID,0,VALID,92.7991,VALID,0,VALID,21.9472,VALID,7,VALID,0.541406,
2009-07-07, 02:18:05,VALID,999.424,VALID,0,VALID,93.0356,VALID,0,VALID,21.9455,VALID,7,VALID,0.491797,
2009-07-07, 02:19:05,VALID,999.393,VALID,0,VALID,93.1119,VALID,0,VALID,21.9862,VALID,7,VALID,0.520312,
2009-07-07, 02:20:05,VALID,999.355,VALID,0,VALID,93.028,VALID,0,VALID,21.9667,VALID,7,VALID,0.4875,
2009-07-07, 02:21:05,VALID,999.329,VALID,0,VALID,93.3408,VALID,0,VALID,21.9862,VALID,7,VALID,0.494922,
2009-07-07, 02:22:05,VALID,999.308,VALID,0,VALID,93.44,VALID,0,VALID,22.0057,VALID,7,VALID,0.559766,
2009-07-07, 02:23:05,VALID,999.304,VALID,0,VALID,93.4857,VALID,0,VALID,22.0252,VALID,109,VALID,1.01094,
2009-07-07, 02:24:05,VALID,999.322,VALID,0,VALID,93.44,VALID,0,VALID,22.0642,VALID,111,VALID,1.03398,
2009-07-07, 02:25:05,VALID,999.303,VALID,0,VALID,93.2721,VALID,0,VALID,22.0235,VALID,112,VALID,0.872266,
2009-07-07, 02:26:05,VALID,999.273,VALID,0,VALID,93.1119,VALID,0,VALID,22.043,VALID,112,VALID,0.849219,
2009-07-07, 02:27:05,VALID,999.268,VALID,0,VALID,93.1195,VALID,0,VALID,22.0642,VALID,112,VALID,0.774219,
2009-07-07, 02:28:05,VALID,999.3,VALID,0,VALID,92.9974,VALID,0,VALID,22.0642,VALID,112,VALID,0.646484,
2009-07-07, 02:29:05,VALID,999.305,VALID,0,VALID,93.1043,VALID,0,VALID,22.0642,VALID,112,VALID,0.476563,
2009-07-07, 02:30:05,VALID,999.349,VALID,0,VALID,93.1195,VALID,0,VALID,22.043,VALID,112,VALID,0.271875,
2009-07-07, 02:31:05,VALID,999.375,VALID,0,VALID,93.1271,VALID,0,VALID,22.043,VALID,112,VALID,0.109375,
2009-07-07, 02:32:05,VALID,999.375,VALID,0,VALID,93.1043,VALID,0,VALID,22.043,VALID,112,VALID,0,
2009-07-07, 02:33:05,VALID,999.378,VALID,0,VALID,93.1729,VALID,0,VALID,22.0642,VALID,112,VALID,0,
2009-07-07, 02:34:05,VALID,999.393,VALID,0,VALID,93.2111,VALID,0,VALID,22.0642,VALID,112,VALID,0,
2009-07-07, 02:35:05,VALID,999.378,VALID,0,VALID,93.0966,VALID,0,VALID,22.0447,VALID,112,VALID,0.177344,
2009-07-07, 02:36:05,VALID,999.379,VALID,0,VALID,92.9211,VALID,0,VALID,22.0252,VALID,99,VALID,0.468359,
2009-07-07, 02:37:05,VALID,999.392,VALID,0,VALID,92.616,VALID,0,VALID,21.926,VALID,17,VALID,0.829687,
2009-07-07, 02:38:05,VALID,999.379,VALID,0,VALID,92.8983,VALID,0,VALID,21.926,VALID,359,VALID,0.957812,
2009-07-07, 02:39:05,VALID,999.417,VALID,0,VALID,93.0432,VALID,0,VALID,21.9065,VALID,350,VALID,1.04492,
2009-07-07, 02:40:05,VALID,999.419,VALID,0,VALID,92.9364,VALID,0,VALID,21.8887,VALID,350,VALID,1.15703,
2009-07-07, 02:41:05,VALID,999.413,VALID,0,VALID,93.2721,VALID,0,VALID,21.8496,VALID,341,VALID,1.50586,
2009-07-07, 02:42:05,VALID,999.447,VALID,0,VALID,93.3484,VALID,0,VALID,21.8496,VALID,342,VALID,1.28359,
2009-07-07, 02:43:05,VALID,999.437,VALID,0,VALID,93.6765,VALID,0,VALID,21.8887,VALID,345,VALID,1.35742,
2009-07-07, 02:44:05,VALID,999.425,VALID,0,VALID,93.7451,VALID,0,VALID,21.9277,VALID,339,VALID,1.19844,
2009-07-07, 02:45:05,VALID,999.432,VALID,0,VALID,93.7375,VALID,0,VALID,21.9472,VALID,321,VALID,0.832031,
2009-07-07, 02:46:05,VALID,999.441,VALID,0,VALID,93.6765,VALID,0,VALID,21.9472,VALID,318,VALID,0.641016,
2009-07-07, 02:47:05,VALID,999.433,VALID,0,VALID,93.6307,VALID,0,VALID,21.9472,VALID,318,VALID,0.559375,
2009-07-07, 02:48:05,VALID,999.448,VALID,0,VALID,93.562,VALID,0,VALID,21.9277,VALID,318,VALID,0.281641,
2009-07-07, 02:49:05,VALID,999.455,VALID,0,VALID,93.5315,VALID,0,VALID,21.9277,VALID,318,VALID,0.454688,
2009-07-07, 02:50:05,VALID,999.478,VALID,0,VALID,93.4934,VALID,0,VALID,21.8887,VALID,318,VALID,0.203125,
2009-07-07, 02:51:05,VALID,999.446,VALID,0,VALID,93.4705,VALID,0,VALID,21.8692,VALID,318,VALID,0.0875,
2009-07-07, 02:52:05,VALID,999.464,VALID,0,VALID,93.5163,VALID,0,VALID,21.8692,VALID,318,VALID,0.167969,
2009-07-07, 02:53:05,VALID,999.437,VALID,0,VALID,93.5697,VALID,0,VALID,21.8692,VALID,318,VALID,0.0328125,
2009-07-07, 02:54:05,VALID,999.473,VALID,0,VALID,93.6154,VALID,0,VALID,21.8692,VALID,318,VALID,0.0015625,
2009-07-07, 02:55:05,VALID,999.431,VALID,0,VALID,93.7451,VALID,0,VALID,21.8692,VALID,318,VALID,0.114844,
2009-07-07, 02:56:05,VALID,999.396,VALID,0,VALID,93.6917,VALID,0,VALID,21.8887,VALID,318,VALID,0.45,
2009-07-07, 02:57:05,VALID,999.377,VALID,0,VALID,93.7146,VALID,0,VALID,21.8887,VALID,328,VALID,0.375,
2009-07-07, 02:58:05,VALID,999.362,VALID,0,VALID,93.6917,VALID,0,VALID,21.8887,VALID,341,VALID,0.372656,
2009-07-07, 02:59:05,VALID,999.329,VALID,0,VALID,93.6154,VALID,0,VALID,21.8887,VALID,341,VALID,0.321875,
2009-07-07, 03:00:05,VALID,999.33,VALID,0,VALID,93.4628,VALID,0,VALID,21.8692,VALID,341,VALID,0.24375,
2009-07-07, 03:01:05,VALID,999.304,VALID,0,VALID,93.4552,VALID,0,VALID,21.9098,VALID,341,VALID,0.639453,
2009-07-07, 03:02:05,VALID,999.254,VALID,0,VALID,93.562,VALID,0,VALID,21.9277,VALID,341,VALID,0.558203,
2009-07-07, 03:03:05,VALID,999.222,VALID,0,VALID,93.5163,VALID,0,VALID,21.9472,VALID,1,VALID,0.624609,
2009-07-07, 03:04:05,VALID,999.191,VALID,0,VALID,93.3408,VALID,0,VALID,21.9862,VALID,142,VALID,0.669141,
2009-07-07, 03:05:05,VALID,999.175,VALID,0,VALID,93.3942,VALID,0,VALID,22.0252,VALID,113,VALID,0.746875,
2009-07-07, 03:06:05,VALID,999.218,VALID,0,VALID,93.1729,VALID,0,VALID,22.0252,VALID,113,VALID,0.558594,
2009-07-07, 03:07:05,VALID,999.197,VALID,0,VALID,93.1043,VALID,0,VALID,22.0252,VALID,139,VALID,0.623047,
2009-07-07, 03:08:05,VALID,999.197,VALID,0,VALID,93.0737,VALID,0,VALID,22.0447,VALID,141,VALID,0.242969,
2009-07-07, 03:09:05,VALID,999.169,VALID,0,VALID,92.9135,VALID,0,VALID,22.0252,VALID,141,VALID,0,
2009-07-07, 03:10:05,VALID,999.221,VALID,0,VALID,92.8983,VALID,0,VALID,22.0057,VALID,141,VALID,0.00234375,
2009-07-07, 03:11:05,VALID,999.242,VALID,0,VALID,92.944,VALID,0,VALID,22.0252,VALID,141,VALID,0.264844,
2009-07-07, 03:12:05,VALID,999.272,VALID,0,VALID,92.8677,VALID,0,VALID,22.0447,VALID,82,VALID,0.545313,
2009-07-07, 03:13:05,VALID,999.275,VALID,0,VALID,92.5397,VALID,0,VALID,22.0235,VALID,351,VALID,0.746875,
2009-07-07, 03:14:05,VALID,999.27,VALID,0,VALID,92.2345,VALID,0,VALID,22.0252,VALID,351,VALID,0.268359,
2009-07-07, 03:15:05,VALID,999.255,VALID,0,VALID,92.1963,VALID,0,VALID,21.9845,VALID,351,VALID,0.159375,
2009-07-07, 03:16:05,VALID,999.269,VALID,0,VALID,91.9751,VALID,0,VALID,21.9667,VALID,352,VALID,0.432031,
2009-07-07, 03:17:05,VALID,999.275,VALID,0,VALID,92.0743,VALID,0,VALID,21.9472,VALID,351,VALID,0.395312,
2009-07-07, 03:18:05,VALID,999.265,VALID,0,VALID,92.204,VALID,0,VALID,21.9082,VALID,351,VALID,0.499219,
2009-07-07, 03:19:05,VALID,999.254,VALID,0,VALID,92.41,VALID,0,VALID,21.9082,VALID,351,VALID,0.571875,
2009-07-07, 03:20:05,VALID,999.237,VALID,0,VALID,92.6923,VALID,0,VALID,21.9277,VALID,314,VALID,0.657812,
2009-07-07, 03:21:05,VALID,999.229,VALID,0,VALID,92.7533,VALID,0,VALID,21.9667,VALID,312,VALID,0.477734,
2009-07-07, 03:22:05,VALID,999.219,VALID,0,VALID,92.822,VALID,0,VALID,22.0057,VALID,312,VALID,0.33125,
2009-07-07, 03:23:05,VALID,999.205,VALID,0,VALID,92.6617,VALID,0,VALID,22.004,VALID,318,VALID,0.507813,
2009-07-07, 03:24:05,VALID,999.207,VALID,0,VALID,92.5702,VALID,0,VALID,22.0642,VALID,336,VALID,0.366406,
2009-07-07, 03:25:05,VALID,999.235,VALID,0,VALID,92.2497,VALID,0,VALID,22.1032,VALID,336,VALID,0.448047,
2009-07-07, 03:26:05,VALID,999.233,VALID,0,VALID,92.0056,VALID,0,VALID,22.121,VALID,336,VALID,0.561719,
2009-07-07, 03:27:05,VALID,999.196,VALID,0,VALID,91.6699,VALID,0,VALID,22.1422,VALID,344,VALID,0.315234,
2009-07-07, 03:28:05,VALID,999.203,VALID,0,VALID,91.7767,VALID,0,VALID,22.1812,VALID,344,VALID,0.158203,
2009-07-07, 03:29:05,VALID,999.198,VALID,0,VALID,91.6699,VALID,0,VALID,22.2202,VALID,344,VALID,0,
2009-07-07, 03:30:05,VALID,999.186,VALID,0,VALID,91.5783,VALID,0,VALID,22.2397,VALID,344,VALID,0,
2009-07-07, 03:31:05,VALID,999.154,VALID,0,VALID,91.6088,VALID,0,VALID,22.2788,VALID,344,VALID,0,
2009-07-07, 03:32:05,VALID,999.148,VALID,0,VALID,91.3494,VALID,0,VALID,22.2983,VALID,344,VALID,0.146094,
2009-07-07, 03:33:05,VALID,999.162,VALID,0,VALID,91.2731,VALID,0,VALID,22.3178,VALID,344,VALID,0.167187,
2009-07-07, 03:34:05,VALID,999.113,VALID,0,VALID,90.9909,VALID,0,VALID,22.3178,VALID,344,VALID,0,
2009-07-07, 03:35:05,VALID,999.109,VALID,0,VALID,91.1434,VALID,0,VALID,22.2771,VALID,344,VALID,0.229297,
2009-07-07, 03:36:05,VALID,999.085,VALID,0,VALID,90.884,VALID,0,VALID,22.3178,VALID,61,VALID,0.540234,
2009-07-07, 03:37:05,VALID,999.11,VALID,0,VALID,90.6094,VALID,0,VALID,22.3373,VALID,84,VALID,0.242578,
2009-07-07, 03:38:05,VALID,999.098,VALID,0,VALID,90.2813,VALID,0,VALID,22.3373,VALID,84,VALID,0.276563,
2009-07-07, 03:39:05,VALID,999.09,VALID,0,VALID,90.6017,VALID,0,VALID,22.3373,VALID,84,VALID,0.437109,
2009-07-07, 03:40:05,VALID,999.112,VALID,0,VALID,90.5483,VALID,0,VALID,22.3763,VALID,113,VALID,0.628906,
2009-07-07, 03:41:05,VALID,999.059,VALID,0,VALID,90.0371,VALID,0,VALID,22.3941,VALID,117,VALID,0.531641,
2009-07-07, 03:42:05,VALID,999.081,VALID,0,VALID,89.9761,VALID,0,VALID,22.4348,VALID,118,VALID,0.431641,
2009-07-07, 03:43:05,VALID,999.064,VALID,0,VALID,89.6862,VALID,0,VALID,22.4543,VALID,131,VALID,0.257031,
2009-07-07, 03:44:04,VALID,999.064,VALID,0,VALID,89.4802,VALID,0,VALID,22.4331,VALID,146,VALID,0.121875,
2009-07-07, 03:45:04,VALID,999.078,VALID,0,VALID,89.2971,VALID,0,VALID,22.4136,VALID,146,VALID,0,
2009-07-07, 03:46:04,VALID,999.079,VALID,0,VALID,89.4268,VALID,0,VALID,22.3958,VALID,146,VALID,0,